Location: Unspecified
(0.0000°N, 0.0000°E)
Time: 07:15:14
(UTC+02:00)

Cosmos 1733 Rocket - Visible Passes

Search period start: 25 July 2014 00:00
Search period end: 04 August 2014 00:00
Orbit: 605 x 631 km, 82.5° (Epoch: 24 July)

Date Brightness Start Highest point End Pass type
(mag) Time Alt. Az. Time Alt. Az. Time Alt. Az.
25 Jul 3.3 07:33:47 10° N 07:38:11 76° E 07:42:37 10° S visible
27 Jul 6.1 06:31:58 10° NE 06:34:31 15° E 06:37:04 10° ESE visible
28 Jul 4.9 06:47:28 10° NNE 06:51:27 33° E 06:55:27 10° SSE visible
29 Jul 3.2 07:03:58 10° N 07:08:23 78° E 07:12:50 10° S visible
30 Jul 3.4 07:21:06 10° NNW 07:25:19 45° W 07:29:34 10° SSW visible
31 Jul 6.0 06:02:05 10° NE 06:04:43 16° E 06:07:22 10° ESE visible
31 Jul 4.4 07:39:00 10° NW 07:42:15 20° W 07:45:32 10° SW visible
01 Aug 4.7 06:17:38 10° NNE 06:21:39 34° E 06:25:41 10° SSE visible
02 Aug 3.1 06:34:09 10° N 06:38:35 80° E 06:43:02 10° S visible
03 Aug 3.4 06:51:18 10° NNW 06:55:31 43° W 06:59:45 10° SSW visible
